Weather History for Jefferson City, MO

Change the Weather History Date:

Monday, June 24, 2013

  Actual Average Record
Temperature  
Mean Temperature 80 °F -  
Max Temperature 91 °F 86 °F 102 °F (1953)
Min Temperature 68 °F 63 °F 45 °F (1961)
Cooling Degree Days 14    
Growing Degree Days 30 (Base 50)    
Moisture  
Dew Point 68 °F    
Average Humidity 65    
Maximum Humidity 93    
Minimum Humidity 43    
Precipitation  
Precipitation 0.00 in - - ()
Sea Level Pressure  
Sea Level Pressure 29.94 in    
Wind  
Wind Speed 7 mph (SSE)    
Max Wind Speed 13 mph    
Max Gust Speed 24 mph    
Visibility 10 miles    
Events      
Averages and records for this station are not official NWS values.
T = Trace of Precipitation, MM = Missing Value Source: NWS Daily Summary

Daily Weather History Graph

Daily Weather History Graph

Search for Another Location

Airport:

Trip Planner

Search our weather history database for the weather conditions in past years. The results will help you decide how hot, cold, wet, or windy it might be!

Date:

Astronomy

Jun. 24, 2013 Rise Set
Actual Time 5:45 AM CDT 8:36 PM CDT
Civil Twilight 5:13 AM CDT 9:08 PM CDT
Nautical Twilight 4:33 AM CDT 9:48 PM CDT
Astronomical Twilight 3:47 AM CDT 10:34 PM CDT
Moon 9:41 PM CDT (6/24) 7:12 AM CDT (6/24)
Length of Visible Light 15h 55m
Length of Day
14h 51m
Full, 98% of the Moon is Illuminated
Jun 24
Full
Jun 29
Last Quarter
Jul 8
New
Jul 15
First Quarter
Jul 22
Full

Hourly Weather History & Observations

Time (CDT) Temp. Heat Index Dew Point Humidity Pressure Visibility Wind Dir Wind Speed Gust Speed Precip Events Conditions
12:53 AM 71.1 °F - 66.0 °F 84% 29.96 in 10.0 mi ESE 4.6 mph - N/A   Clear
1:53 AM 71.1 °F - 66.0 °F 84% 29.95 in 10.0 mi ESE 8.1 mph - N/A   Clear
2:53 AM 70.0 °F - 66.0 °F 87% 29.96 in 10.0 mi ESE 6.9 mph - N/A   Clear
3:53 AM 69.1 °F - 66.0 °F 90% 29.95 in 10.0 mi SE 3.5 mph - N/A   Clear
4:53 AM 70.0 °F - 66.0 °F 87% 29.96 in 9.0 mi Calm Calm - N/A   Clear
5:53 AM 68.0 °F - 66.0 °F 93% 29.97 in 7.0 mi SE 4.6 mph - N/A   Clear
6:53 AM 71.1 °F - 66.9 °F 87% 29.99 in 6.0 mi ESE 6.9 mph - N/A   Clear
7:53 AM 75.0 °F - 69.1 °F 82% 29.99 in 7.0 mi Variable 3.5 mph - N/A   Clear
8:53 AM 80.1 °F 83.2 °F 70.0 °F 71% 30.00 in 8.0 mi Variable 5.8 mph - N/A   Clear
9:53 AM 82.9 °F 87.0 °F 70.0 °F 65% 29.99 in 10.0 mi South 6.9 mph - N/A   Clear
10:53 AM 84.9 °F 88.8 °F 69.1 °F 59% 29.99 in 10.0 mi SSW 9.2 mph 18.4 mph N/A   Clear
11:53 AM 87.1 °F 91.3 °F 69.1 °F 55% 29.99 in 10.0 mi South 11.5 mph - N/A   Clear
12:53 PM 88.0 °F 92.9 °F 70.0 °F 55% 29.96 in 10.0 mi SSW 10.4 mph - N/A   Partly Cloudy
1:53 PM 89.1 °F 92.9 °F 68.0 °F 50% 29.94 in 10.0 mi South 12.7 mph - N/A   Partly Cloudy
2:53 PM 90.0 °F 94.5 °F 69.1 °F 50% 29.94 in 10.0 mi SSW 9.2 mph - N/A   Scattered Clouds
3:53 PM 90.0 °F 93.6 °F 68.0 °F 48% 29.91 in 10.0 mi South 5.8 mph - N/A   Scattered Clouds
4:53 PM 91.0 °F 94.3 °F 66.9 °F 45% 29.91 in 10.0 mi SSE 9.2 mph - N/A   Partly Cloudy
5:44 PM 91.4 °F 94.0 °F 66.2 °F 43% 29.93 in 10.0 mi South 10.4 mph - N/A   Partly Cloudy
5:53 PM 91.0 °F 95.2 °F 68.0 °F 47% 29.89 in 10.0 mi South 10.4 mph - N/A   Partly Cloudy
6:53 PM 88.0 °F 92.9 °F 70.0 °F 55% 29.88 in 10.0 mi SE 9.2 mph - N/A   Clear
7:21 PM 87.8 °F 92.6 °F 69.8 °F 55% 29.92 in 10.0 mi SSE 9.2 mph - N/A   Partly Cloudy
7:53 PM 86.0 °F 90.7 °F 70.0 °F 59% 29.88 in 10.0 mi SSE 5.8 mph - N/A   Clear
8:53 PM 84.0 °F 88.4 °F 70.0 °F 63% 29.86 in 10.0 mi SE 9.2 mph - N/A   Clear
9:53 PM 84.0 °F 87.8 °F 69.1 °F 61% 29.87 in 10.0 mi SE 11.5 mph - N/A   Clear
10:53 PM 82.9 °F 86.5 °F 69.1 °F 63% 29.85 in 10.0 mi SSE 12.7 mph 24.2 mph N/A   Clear
11:53 PM 84.0 °F 87.8 °F 69.1 °F 61% 29.90 in 10.0 mi SSW 8.1 mph - N/A   Clear